Home > Weather > Lahti > Past weeks

Flag for Finland Past Weather in Lahti, Finland — Yesterday and Last 2 Weeks

Now
55 °F

Mostly cloudy.


Feels Like: 54 °F
Forecast: 49 / 66 °F
Wind: 6 mph from Northeast

Location: Utti

Current Time: May 27, 2016 at 5:21:54 PM

Latest Report: May 27, 2016 at 4:50 PM


Visibility: N/A

Pressure: 30.21 "Hg

Humidity: 88%

Dew Point: 52 °F

Location of LahtiLocation

Past Weather in Lahti — Graph

°F

Lahti Temperature Yesterday

Maximum temperature yesterday: 63 °F (at 10:50 AM)
Minimum temperature yesterday: 54 °F (at 8:50 PM)
Average temperature yesterday: 58 °F

High & Low Weather Summary for the Past Weeks

 TemperatureHumidityPressure
High77 °F (May 24, 4:50 PM)100% (May 18, 5:20 AM)30.21 "Hg (May 18, 5:20 AM)
Low37 °F (May 13, 3:50 AM)21% (May 25, 3:20 PM)29.56 "Hg (May 15, 5:20 AM)
Average57 °F61%29.84 "Hg
* Reported May 12 4:20 PM — May 27 4:20 PM, Lahti, Weather by CustomWeather, © 2016

Note: Actual official high and low records may vary slightly from our data, if they occured in-between our weather recording intervals... More about our weather records

Advertising

Lahti Weather History for the Previous 24 Hours

Scroll right to see more
 ConditionsComfort  
Time TempWeatherWind HumidityBarometerVisibility
4:20 PM
Fri, May 27
55 °FMostly cloudy.7 mph88%30.21 "HgN/A
3:50 PM54 °FLow clouds.7 mph100%30.21 "Hg3 mi
3:20 PM54 °FLow clouds.8 mph100%30.18 "Hg5 mi
2:50 PM54 °FLow clouds.6 mph100%30.18 "HgN/A
2:20 PM54 °FDrizzle. Fog.7 mph100%30.18 "Hg2 mi
1:50 PM54 °FDrizzle. Low clouds.7 mph100%30.18 "Hg4 mi
1:20 PM54 °FDrizzle. Low clouds.6 mph100%30.15 "Hg4 mi
12:50 PM54 °FDrizzle. Low clouds.8 mph94%30.15 "HgN/A
12:20 PM55 °FDrizzle. Low clouds.8 mph94%30.15 "HgN/A
11:50 AM54 °FDrizzle. Low clouds.9 mph94%30.12 "HgN/A
11:20 AM54 °FLow clouds.9 mph94%30.12 "HgN/A
10:50 AM54 °FLow clouds.10 mph94%30.12 "HgN/A
10:20 AM54 °FDrizzle. Fog.12 mph94%30.09 "Hg2 mi
9:50 AM54 °FDrizzle. Fog.9 mph94%30.09 "Hg2 mi
9:20 AM52 °FDrizzle. Fog.10 mph100%30.09 "Hg2 mi
8:50 AM52 °FDrizzle. Fog.12 mph100%30.07 "Hg2 mi
8:20 AM52 °FDrizzle. Fog.13 mph100%30.07 "Hg2 mi
7:50 AM52 °FDrizzle. Fog.12 mph100%30.07 "Hg2 mi
7:20 AM52 °FDrizzle. Fog.9 mph94%30.04 "Hg1 mi
6:50 AM52 °FDrizzle. Fog.9 mph94%30.04 "Hg1 mi
6:20 AM52 °FDrizzle. Fog.9 mph94%30.04 "Hg1 mi
5:50 AM50 °FDrizzle. Fog.8 mph100%30.01 "Hg1 mi
5:20 AM50 °FLow clouds.9 mph100%30.01 "Hg4 mi
4:50 AM50 °FLow clouds.10 mph100%30.01 "Hg4 mi
4:20 AM50 °FLight rain. Low clouds.12 mph100%30.01 "Hg4 mi
3:50 AM50 °FSprinkles. Low clouds.10 mph100%29.98 "Hg2 mi
3:20 AM50 °FSprinkles. Low clouds.13 mph100%29.98 "Hg3 mi
2:50 AM52 °FLight rain. Fog.12 mph94%29.98 "Hg3 mi
2:20 AM52 °FFog.13 mph94%29.98 "Hg3 mi
1:50 AM52 °FSprinkles. Low clouds.10 mph94%29.98 "Hg3 mi
1:20 AM52 °FLight rain. Fog.10 mph100%29.95 "Hg2 mi
12:50 AM52 °FFog.9 mph100%29.95 "Hg2 mi
12:20 AM52 °FFog.9 mph100%29.95 "Hg2 mi
11:50 PM
Thu, May 26
54 °FLight rain. Fog.9 mph94%29.95 "Hg3 mi
11:20 PM54 °FLight rain. Fog.9 mph94%29.92 "Hg3 mi
10:50 PM54 °FLight rain. Low clouds.12 mph94%29.92 "Hg3 mi
10:20 PM54 °FSprinkles. Low clouds.10 mph94%29.92 "Hg3 mi
9:50 PM54 °FLow clouds.10 mph94%29.92 "Hg4 mi
9:20 PM54 °FSprinkles. Low clouds.10 mph100%29.89 "HgN/A
8:50 PM54 °FSprinkles. Low clouds.10 mph100%29.89 "HgN/A
8:20 PM55 °FSprinkles. Low clouds.10 mph94%29.89 "Hg3 mi
7:50 PM55 °FLow clouds.9 mph94%29.89 "Hg5 mi
6:50 PM55 °FLow clouds.12 mph94%29.86 "HgN/A
6:20 PM55 °FSprinkles. Low clouds.12 mph94%29.86 "HgN/A
5:50 PM55 °FLow clouds.12 mph94%29.86 "HgN/A
5:20 PM57 °FLow clouds.10 mph88%29.86 "HgN/A
Weather by CustomWeather, © 2016

See weather overviewHow to use our weather pages